Probability
0 0 0 0 0 0 0 0 0 0 0 0 0 0 0 0 0 0 0 0 0 0 0 0 0 0 0 0 0 0 0 0 0 0 0 0 0 0 0 0 0 0 0 0
0 0 0 0 0 0 0 0 0 0 0 0 0 0 0 0 0 0 0 0 0 0 0 0 0 0 0 0 0 0 0 0 0 0 0 0 0 0 0 0 0 0 0 0
0 0 0 0 0 0 0 0 0 0 0 0 0 0 0 0 0 0 0 0 0 0 0 0 0 0 0 0 0 0 0 0 0 0 0 0 0 0 0 0 0 0 0 0
0 0 0 0 0 0 0 0 0 0 0 0 0 0 0 0 0 0 0 0 0 0 0 0 0 0 0 0 0 0 0 0 0 0 0 0 0 0 0 0 0 0 0 0
0 0 0 0 0 0 0 0 0 0 0 0 0 0 0 0 0 0 0 0 0 0 0 0 0 0 0 0 0 0 0 0 0 0 0 0 0 0 0 0 0 0 0 0
0 0 0 0 0 0 0 0 0 0 0 0 0 0 0 0 0 0 0 0 0 0 0 0 0 0 0 0 0 0 0 0 0 0 0 0 0 0 0 0 0 0 0 0
0 0 0 0 0 0 0 0 0 0 0 0 0 0 0 0 0 0 0 0 0 0 0 0 0 0 0 0 0 0 0 0 0 0 0 0 0 0 0 0 0 0 0 0
0 0 0 0 0 0 0 0 0 0 0 0 0 0 0 0 0 0 0 0 0 0 0 0 0 0 0 0 0 0 0 0 0 0 0 0 0 0 0 0 0 0 0 0
0 0 0 0 0 0 0 0 0 0 0 0 0 0 0 0 0 0 0 0 0 0 0 0 0 0 0 0 0 0 0 0 0 0 0 0 0 0 0 0 0 0 0 0
0 0 0 0 0 0 0 0 0 0 0 0 0 0 0 0 0 0 0 0 0 0 0 0 0 0 0 0 0 0 0 0 0 0 0 0 0 0 0 0 0 0 0 0
0 0 0 0 0 0 0 0 0 0 0 0 0 0 0 0 0 0 0 0 0 0 0 0 0 0 0 0 0 0 0 0 0 0 0 0 0 0 0 0 0 0 0 0
0 0 0 0 0 0 0 0 0 0 0 0 0 0 0 0 0 0 0 0 0 0 0 0 0 0 0 0 0 0 0 0 0 0 0 0 0 0 0 0 0 0 0 0
0 0 0 0 0 0 0 0 0 0 0 0 0 0 0 0 0 0 0 0 0 0 0 0 0 0 0 0 0 0 0 0 0 0 0 0 0 0 0 0 0 0 0 0
0 0 0 0 0 0 0 0 0 0 0 0 0 0 0 0 0 0 0 0 0 0 0 0 0 0 0 0 0 0 0 0 0 0 0 0 0 0 0 0 0 0 0 0
0 0 0 0 0 0 0 0 0 0 0 0 0 0 0 0 0 0 0 0 0 0 0 0 0 0 0 0 0 0 0 0 0 0 0 0 0 0 0 0 0 0 0 0
0 0 0 0 0 0 0 0 0 0 0 0 0 0 0 0 0 0 0 0 0 0 0 0 0 0 0 0 0 0 0 0 0 0 0 0 0 0 0 0 0 0 0 0
0 0 0 0 0 0 0 0 0 0 0 0 0 0 0 0 0 0 0 0 0 0 0 0 0 0 0 0 0 0 0 0 0 0 0 0 0 0 0 0 0 0 0 0
0 0 0 0 0 0 0 0 0 0 0 0 0 0 0 0 0 0 0 0 0 0 0 0 0 0 0 0 0 0 0 0 0 0 0 0 0 0 0 0 0 0 0 0
0 0 0 0 0 0 0 0 0 0 0 0 0 0 0 0 0 0 0 0 0 0 0 0 0 0 0 0 0 0 0 0 0 0 0 0 0 0 0 0 0 0 0 0
0 0 0 0 0 0 0 0 0 0 0 0 0 0 0 0 0 0 0 0 0 0 0 0 0 0 0 0 0 0 0 0 0 0 0 0 0 0 0 0 0 0 0 0
0 0 0 0 0 0 0 0 0 0 0 0 0 0 0 0 0 0 0 0 0 0 0 0 0 0 0 0 0 0 0 0 0 0 0 0 0 0 0 0 0 0 0 0
0 0 0 0 0 0 0 0 0 0 0 0 0 0 0 0 0 0 0 0 0 0 0 0 0 0 0 0 0 0 0 0 0 0 0 0 0 0 0 0 0 0 0 0
0 0 0 0 0 0 0 0 0 0 0 0 0 0 0 0 0 0 0 0 0 0 0 0 0 0 0 0 0 0 0 0 0 0 0 0 0 0 0 0 0 0 0 0
0 0 0 0 0 0 0 0 0 0 0 0 0 0 0 0 0 0 0 0 0 0 0 0 0 0 0 0 0 0 0 0 0 0 0 0 0 0 0 0 0 0 0 0
0 0 0 0 0 0 0 0 0 0 0 0 0 0 0 0 0 0 0 0 0 0 0 0 0 0 0 0 0 0 0 0 0 0 0 0 0 0 0 0 0 0 0 0
0 0 0 0 0 0 0 0 0 0 0 0 0 0 0 0 0 0 0 0 0 0 0 0 0 0 0 0 0 0 0 0 0 0 0 0 0 0 0 0 0 0 0 0
0 0 0 0 0 0 0 0 0 0 0 0 0 0 0 0 0 0 0 0 0 0 0 0 0 0 0 0 0 0 0 0 0 0 0 0 0 0 0 0 0 0 0 0
Wind_Speed
3 2 1 2 2 2 1 1 1 3 3 2 2 3 4 5 6 8 9 10 10 9 9 9 9 8 8 7 7 6 4 3 2 2 1 1 2 3 4 4 5 6 6 7
2 3 2 2 3 2 2 1 2 2 2 3 3 4 5 5 5 7 8 8 9 9 9 9 9 9 8 8 7 6 5 4 3 2 1 1 2 3 4 5 5 6 6 7
1 2 1 1 3 1 1 1 1 1 2 2 2 3 3 4 4 5 6 7 8 8 8 8 9 8 8 8 7 6 5 4 4 3 2 2 2 4 5 6 6 7 7 7
1 0 1 3 3 1 0 1 1 1 2 1 2 3 3 4 4 5 6 7 7 7 8 8 8 8 7 7 6 6 5 5 4 4 4 3 3 4 5 5 6 6 7 7
0 1 1 2 1 0 1 0 0 1 1 2 3 3 2 3 4 4 5 6 6 7 7 7 7 8 7 6 6 6 6 6 5 5 5 4 5 5 5 5 6 6 6 7
1 2 2 3 3 1 3 2 2 2 2 2 2 3 1 2 4 5 5 6 6 7 7 7 8 8 7 7 7 7 7 7 7 6 6 6 6 5 5 5 6 6 6 6
3 3 2 2 0 2 4 2 4 3 2 2 1 2 3 3 4 5 5 6 6 7 6 7 7 7 7 7 8 8 8 8 7 6 6 6 5 5 5 5 5 6 7 7
4 4 2 3 3 3 2 3 3 2 2 1 1 2 2 3 4 5 6 6 7 7 7 7 7 7 7 8 8 8 8 8 8 7 6 5 5 5 5 6 6 7 7 7
3 1 3 2 1 1 1 2 2 1 1 1 2 3 4 5 5 6 6 7 7 7 8 7 7 7 8 8 8 8 9 9 8 7 6 5 5 5 5 6 6 6 6 7
4 4 3 3 3 2 2 2 2 1 1 2 3 4 5 5 6 6 7 7 7 8 9 9 8 8 8 9 8 9 9 9 7 7 6 6 5 5 5 6 6 6 7 7
5 3 2 4 5 4 3 3 2 1 2 3 4 5 6 6 7 7 7 7 7 8 9 10 10 9 9 8 8 9 9 8 7 7 6 6 6 6 7 7 7 7 7 7
4 3 4 3 4 5 5 4 3 3 3 4 4 6 7 7 7 7 8 8 8 9 10 10 10 10 9 8 8 9 9 8 6 6 6 6 6 6 8 9 11 12 10 8
1 2 2 2 3 4 4 4 3 4 4 5 5 6 7 7 7 8 8 9 9 10 10 11 11 11 10 9 8 9 9 9 7 6 6 6 6 6 6 7 11 12 13 13
3 4 3 4 4 4 3 3 3 4 5 5 6 6 6 7 8 9 9 9 9 10 10 11 11 11 10 9 9 10 10 9 9 7 7 6 6 6 6 6 5 5 9 13
5 4 3 3 3 3 2 2 4 5 5 6 6 6 7 8 9 10 9 9 9 10 10 11 11 12 10 9 9 10 9 7 7 7 7 7 6 6 6 6 6 5 4 6
5 4 4 4 4 3 3 4 5 6 6 7 7 7 8 9 10 10 10 9 9 11 11 11 11 11 10 9 10 9 8 11 10 8 7 7 6 6 6 6 6 5 5 4
7 6 5 5 5 5 5 5 6 6 7 7 8 8 8 9 10 10 10 9 9 11 11 11 11 11 10 10 10 8 8 8 11 8 7 7 6 6 6 6 6 6 5 6
5 4 4 4 4 5 5 5 6 6 7 7 8 8 8 9 10 11 11 10 10 11 10 10 10 10 10 10 8 7 7 7 7 7 6 6 6 6 6 6 6 6 5 5
4 3 3 3 3 3 4 5 5 6 6 6 7 8 9 9 10 10 10 10 11 11 10 8 12 11 10 10 10 7 7 7 7 6 6 8 7 6 5 5 5 5 4 4
3 2 2 2 2 3 4 4 5 6 6 6 7 8 9 9 9 9 10 10 8 8 10 11 11 10 9 9 9 6 7 7 7 6 6 6 6 6 5 5 5 4 4 4
3 2 2 1 2 3 3 4 5 6 6 6 7 8 9 9 9 8 8 9 8 9 10 12 9 8 7 8 9 6 6 6 6 6 6 6 6 5 5 5 4 4 4 4
2 1 1 1 2 3 3 3 4 6 6 6 7 7 8 9 9 8 8 7 9 12 10 7 7 9 11 10 6 6 6 6 6 5 6 5 5 5 4 4 4 3 3 3
2 1 1 1 2 4 4 4 4 5 6 7 7 7 8 8 7 7 8 6 7 12 10 7 10 14 14 8 6 6 6 6 5 5 5 5 5 4 4 4 3 3 3 2
2 1 0 1 2 3 4 5 5 5 6 7 6 7 7 7 6 5 6 11 13 14 9 10 14 15 12 6 5 5 5 5 5 5 4 4 4 3 3 3 3 2 2 2
1 1 0 1 2 2 4 5 5 5 6 5 6 6 5 5 6 7 8 9 12 12 8 10 13 13 8 5 5 5 5 5 5 5 4 4 3 3 3 2 2 2 2 2
1 1 0 1 2 2 3 3 4 4 5 6 6 6 6 5 7 7 6 8 10 11 8 7 7 8 6 5 5 5 5 5 5 4 4 4 4 3 3 2 3 2 2 2
2 1 1 1 1 2 3 3 4 5 5 6 7 6 7 7 6 7 8 7 7 7 6 6 6 6 5 5 5 5 5 4 4 4 4 3 3 3 3 3 2 2 2 2
Wind_Direction
45 27 34 39 35 53 59 0 51 94 103 100 89 80 67 61 59 54 46 39 33 28 25 22 20 18 16 12 8 1 354 349 345 333 286 203 193 187 180 179 176 170 166 167
66 40 39 45 24 28 37 49 113 119 98 64 78 77 66 54 51 46 38 29 22 17 15 14 11 6 3 3 359 350 343 335 332 317 289 226 204 191 185 182 177 173 176 175
70 344 271 43 4 333 60 30 304 246 78 104 102 79 61 48 44 36 24 15 10 5 3 0 358 354 352 350 348 345 340 332 323 307 283 254 220 204 197 191 184 184 184 183
48 245 216 60 35 339 141 68 7 38 67 108 111 97 69 41 34 24 10 1 359 354 351 349 346 345 341 341 341 338 334 329 319 303 284 265 236 220 211 202 196 193 191 189
204 238 245 140 124 310 280 118 43 193 121 102 122 155 114 47 20 4 354 348 345 343 339 337 341 340 333 333 335 334 332 326 316 298 280 262 244 231 218 208 205 203 196 193
188 248 236 101 100 354 249 209 135 176 162 149 189 245 66 35 349 346 344 341 336 334 333 335 338 335 329 329 329 329 326 318 308 293 277 264 253 242 229 215 209 203 202 200
212 247 269 91 105 213 230 64 125 163 165 168 226 340 9 337 330 332 332 331 328 325 326 328 329 325 320 320 321 320 316 310 303 292 279 269 260 244 230 217 206 206 203 203
203 224 223 121 172 215 24 84 134 149 159 189 258 312 309 311 315 318 320 322 323 318 317 319 322 316 310 311 314 313 310 306 302 297 287 271 258 244 229 216 210 210 208 206
233 279 58 149 204 41 107 155 155 169 185 212 262 282 294 300 305 310 313 315 315 313 311 312 315 312 305 308 311 309 305 303 301 298 287 272 259 247 233 221 216 212 209 210
247 240 216 209 206 193 183 175 160 184 211 235 265 282 290 297 302 306 310 311 312 311 308 309 312 308 303 305 305 303 300 300 297 294 288 277 262 248 237 227 223 217 213 214
242 235 217 217 209 195 178 175 180 207 244 257 271 281 289 295 299 303 305 307 307 304 302 304 307 304 303 302 301 297 295 293 291 286 282 276 264 251 245 241 237 231 224 216
222 192 200 186 178 181 188 201 213 237 260 266 274 284 289 290 295 297 299 301 299 297 297 301 302 300 300 299 297 294 291 290 287 284 281 276 274 270 251 248 251 248 245 234
192 133 160 133 157 178 199 214 227 244 262 275 279 282 286 290 294 294 293 293 293 294 295 297 297 296 297 295 291 286 284 286 284 279 275 273 271 269 272 260 248 245 241 236
169 153 169 182 185 187 205 223 239 255 265 273 280 283 284 286 288 289 290 293 294 294 293 293 293 293 296 294 287 283 282 280 276 274 272 270 268 266 265 264 262 255 240 235
190 199 187 160 171 188 205 224 249 263 273 278 279 281 283 285 287 290 294 295 293 290 290 292 292 293 297 294 287 283 280 276 274 273 272 269 266 265 263 260 258 259 253 236
173 174 178 192 209 216 227 242 257 270 278 282 283 284 285 285 287 289 290 291 289 290 293 294 292 294 298 293 288 283 277 274 275 273 271 267 261 258 259 257 255 252 245 236
163 183 197 214 225 233 241 249 260 272 279 281 286 291 292 290 289 290 292 293 288 286 287 287 289 295 295 290 287 284 283 280 274 271 267 264 261 257 256 255 254 254 250 233
195 190 192 208 224 238 252 260 264 271 276 284 292 292 290 289 290 294 298 300 296 290 286 286 291 295 293 290 287 283 281 279 275 271 271 268 265 261 257 254 255 257 258 245
180 183 193 212 227 241 256 267 273 276 282 287 289 288 288 287 287 292 298 298 295 294 300 302 301 296 292 292 292 282 280 281 279 277 274 272 270 265 259 255 256 255 254 248
162 172 191 220 242 250 266 279 286 286 288 289 288 289 291 292 295 298 298 292 287 293 302 304 302 296 294 293 293 284 281 279 278 279 277 273 270 268 261 257 255 255 254 251
164 174 197 241 272 279 283 290 291 292 297 295 289 291 295 299 302 301 299 297 303 309 306 304 301 299 297 296 294 285 281 280 280 280 279 276 274 271 266 260 257 254 252 251
166 177 227 276 290 298 307 305 299 298 302 301 297 297 299 302 305 301 291 290 304 313 312 304 303 305 309 305 294 289 286 284 283 282 281 281 278 275 271 265 260 258 253 251
154 175 239 284 296 304 313 314 311 306 304 304 303 305 304 303 303 303 305 309 311 314 313 304 310 315 317 312 300 294 290 289 286 284 284 284 283 281 278 273 269 266 261 255
146 158 285 318 314 311 317 325 322 312 306 302 302 305 306 306 304 300 299 308 314 315 311 311 317 321 321 312 305 302 300 297 295 292 291 289 287 287 285 282 280 281 277 272
136 132 59 340 324 320 320 323 321 320 320 315 316 317 312 306 304 310 311 310 315 319 314 316 321 324 322 312 310 308 306 306 310 308 302 301 299 297 298 299 298 296 295 292
122 100 4 331 326 323 322 323 321 323 323 320 320 322 322 318 313 311 311 313 316 318 318 315 318 321 318 316 313 312 311 312 313 313 313 310 310 309 309 313 313 307 304 302
104 78 25 357 345 334 325 321 318 319 321 317 317 321 323 321 319 320 319 319 320 320 319 319 320 319 319 319 318 317 314 314 315 314 315 315 316 316 316 312 308 309 309 309